Sheringham Point, British Columbia

1:58 AM PDT on July 21, 2017 (GMT -0700)
Sheringham Point

Weather History for CWSP - February, 2013

Change the Weather History Date:

Thursday, February 21, 2013

  Actual Average Record
Temperature  
Mean Temperature 40 °F -  
Max Temperature 44 °F - - ()
Min Temperature 37 °F - - ()
Degree Days  
Heating Degree Days 24    
Moisture  
Dew Point 38 °F    
Average Humidity 85    
Maximum Humidity 93    
Minimum Humidity 74    
Precipitation  
Precipitation 0.28 in - - ()
Sea Level Pressure  
Sea Level Pressure 29.98 in    
Wind  
Wind Speed 25 mph ()    
Max Wind Speed 38 mph    
Max Gust Speed -    
T = Trace of Precipitation, MM = Missing Value Source: Averaged Metar Reports

Daily Weather History Graph

Daily Weather History Graph

Search for Another Location

Airport or City:

Trip Planner

Search our weather history database for the weather conditions in past years. The results will help you decide how hot, cold, wet, or windy it might be!

Date:

Astronomy

Feb. 21, 2013 Rise Set
Actual Time 7:11 AM PST 5:47 PM PST
Civil Twilight 6:39 AM PST 6:19 PM PST
Nautical Twilight 6:03 AM PST 6:55 PM PST
Astronomical Twilight 5:27 AM PST 7:32 PM PST
Moon 1:55 PM PST 4:32 AM PST
Length of Visible Light 11h 39m
Length of Day
10h 36m
Waxing Gibbous, 84% of the Moon is Illuminated
Feb 21
Waxing Gibbous
Feb 25
Full
Mar 4
Last Quarter
Mar 11
New
Mar 19
First Quarter

Hourly Weather History & Observations

Time (PST) Temp. Windchill Dew Point Humidity Pressure Visibility Wind Dir Wind Speed Gust Speed Precip Events Conditions
12:00 AM 41.0 °F - 37.0 °F 86% 29.98 in - North 2.3 mph - N/A   Unknown
1:00 AM 41.2 °F 29.7 °F 38.1 °F 89% 30.00 in - North 32.2 mph - N/A   Unknown
2:00 AM 39.9 °F 27.1 °F 37.8 °F 92% 30.00 in - North 38.0 mph - 0.02 in   Unknown
3:00 AM 41.5 °F 29.9 °F 37.4 °F 85% 29.98 in - North 34.5 mph - N/A   Unknown
4:00 AM 43 °F - 37 °F 74% 29.98 in - Calm Calm - -  
4:00 AM 42.8 °F 32.3 °F 37.4 °F 81% 29.98 in - North 29.9 mph - N/A   Unknown
5:00 AM 42.8 °F 32.3 °F 39.0 °F 86% 29.96 in - North 29.9 mph - N/A   Unknown
6:00 AM 42.4 °F 31.4 °F 37.4 °F 82% 29.97 in - North 32.2 mph - 0.03 in   Unknown
7:00 AM 41.2 °F 29.7 °F 36.5 °F 83% 29.98 in - North 32.2 mph - 0.04 in   Unknown
8:00 AM 39.2 °F 26.5 °F 36.5 °F 90% 29.99 in - North 35.7 mph - 0.05 in   Unknown
9:00 AM 37.2 °F 23.4 °F 35.2 °F 93% 29.99 in - North 38.0 mph - 0.12 in   Unknown
10:00 AM 39 °F - 36 °F 86% 29.96 in - Calm Calm - -  
10:00 AM 38.8 °F 25.8 °F 36.3 °F 91% 29.96 in - North 36.8 mph - 0.03 in   Unknown
11:00 AM 41.5 °F 30.2 °F 37.6 °F 86% 29.97 in - North 32.2 mph - 0.03 in   Unknown
12:00 PM 42.6 °F 32.0 °F 37.4 °F 82% 29.97 in - North 29.9 mph - N/A   Unknown
1:00 PM 41.9 °F 30.7 °F 39.2 °F 90% 29.97 in - North 32.2 mph - 0.02 in   Unknown
2:00 PM 43.9 °F 33.9 °F 40.1 °F 87% 29.96 in - North 28.8 mph - N/A   Unknown
3:00 PM 43.3 °F 32.7 °F 40.5 °F 90% 29.97 in - North 32.2 mph - N/A   Unknown
4:00 PM 45 °F - 40 °F 78% 29.97 in - Calm Calm - -  
4:00 PM 44.6 °F 34.4 °F 40.5 °F 85% 29.97 in - North 32.2 mph - 0.02 in   Unknown
5:00 PM 43.9 °F 33.2 °F 39.6 °F 85% 30.00 in - North 33.4 mph - N/A   Unknown
6:00 PM 44.8 °F 34.8 °F 40.5 °F 85% 30.00 in - North 31.1 mph - N/A   Unknown
7:00 PM 44.4 °F 34.7 °F 39.7 °F 84% 29.99 in - North 28.8 mph - N/A   Unknown
8:00 PM 44.4 °F 34.5 °F 40.3 °F 85% 30.01 in - North 29.9 mph - N/A   Unknown
9:00 PM 44.2 °F 34.1 °F 39.9 °F 85% 30.02 in - North 31.1 mph - N/A   Unknown
10:00 PM 44 °F - 40 °F 79% 30.01 in - Calm Calm - -  
10:00 PM 44.4 °F 34.3 °F 39.7 °F 84% 30.01 in - North 31.1 mph - N/A   Unknown
11:00 PM 44.4 °F 34.3 °F 38.8 °F 81% 30.01 in - North 31.1 mph - N/A   Unknown